| Date | Time | Temp. (oF) | Dew Point (oF) | Rel. Hum. (%) | Press. (in.) | Wind Dir. | Wind Speed (mph) | Hourly Rainfall (in.) |
|
|---|---|---|---|---|---|---|---|---|---|
| 1 | 03/13 | 00:00 | 43 | 42 | 99 | 29.83 | SSE | 11 | 0.00 |
| 2 | 03/12 | 23:00 | 43 | 42 | 99 | 29.86 | ENE | 20 | 0.00 |
| 3 | 03/12 | 22:00 | 43 | 42 | 100 | 29.87 | E | 16 | 0.00 |
| 4 | 03/12 | 21:00 | 43 | 42 | 100 | 29.90 | ESE | 13 | 0.06 |
| 5 | 03/12 | 20:00 | 43 | 42 | 100 | 29.90 | ENE | 10 | 0.10 |
| 6 | 03/12 | 19:00 | 44 | 44 | 100 | 29.90 | E | 13 | 0.07 |
| 7 | 03/12 | 18:00 | 45 | 45 | 100 | 29.90 | ENE | 12 | 0.01 |
| 8 | 03/12 | 17:00 | 47 | 46 | 99 | 29.89 | SE | 6 | 0.00 |
| 9 | 03/12 | 16:00 | 48 | 47 | 98 | 29.90 | NE | 9 | 0.00 |
| 10 | 03/12 | 15:00 | 48 | 47 | 97 | 29.91 | ENE | 7 | 0.00 |
| 11 | 03/12 | 14:00 | 48 | 47 | 98 | 29.93 | ESE | 6 | 0.00 |
| 12 | 03/12 | 13:00 | 48 | 47 | 98 | 29.95 | ENE | 4 | 0.01 |
| 13 | 03/12 | 12:00 | 48 | 47 | 98 | 29.97 | E | 12 | 0.00 |
| 14 | 03/12 | 11:00 | 47 | 46 | 99 | 29.98 | ESE | 9 | 0.00 |
| 15 | 03/12 | 10:00 | 46 | 45 | 100 | 29.98 | ENE | 7 | 0.00 |
| 16 | 03/12 | 09:00 | 45 | 45 | 100 | 29.98 | ESE | 18 | 0.00 |
| 17 | 03/12 | 08:00 | 45 | 45 | 100 | 29.98 | NE | 11 | 0.01 |
| 18 | 03/12 | 07:00 | 45 | 45 | 100 | 29.97 | NE | 6 | 0.03 |
| 19 | 03/12 | 06:00 | 45 | 45 | 100 | 29.96 | ENE | 6 | 0.08 |
| 20 | 03/12 | 05:00 | 46 | 45 | 100 | 29.96 | SSE | 1 | 0.04 |
| 21 | 03/12 | 04:00 | 46 | 45 | 99 | 29.96 | E | 5 | 0.01 |
| 22 | 03/12 | 03:00 | 48 | 47 | 97 | 29.96 | ENE | 5 | 0.00 |
| 23 | 03/12 | 02:00 | 49 | 47 | 94 | 29.97 | E | 0 | 0.00 |
| 24 | 03/12 | 01:00 | 50 | 47 | 90 | 29.97 | E | 0 | 0.00 |